Location: La L�cherette
(46.4204°N, 7.1052°E)
Time: 20:15:18
(UTC+00:00)

Daily predictions for brighter satellites

Satellite Brightness Start Highest point End
(mag) Time Altitude Azimuth Time Altitude Azimuth Time Altitude Azimuth
Cosmos 2082 Rocket 3.7 19:23:29 10° SW 19:28:51 44° NW 19:34:18 10° NNE
Cosmos 371 Rocket 4.2 19:25:05 10° NNW 19:29:44 49° WSW 19:34:21 10° S
Cosmos 2360 Rocket 3.0 19:27:10 10° NNW 19:32:24 37° NE 19:37:37 10° ESE
USA 276 3.8 19:29:55 10° W 19:32:34 25° SW 19:35:13 10° SSE
Cosmos 1606 3.9 19:29:44 10° NNW 19:33:23 44° W 19:37:01 10° SSW
Cosmos 1633 3.4 19:30:46 10° SSW 19:34:19 56° WNW 19:37:53 10° N
GEOS 3 Rocket 3.6 19:30:26 10° NE 19:35:38 67° SE 19:40:42 10° SSW
Gbstr 26 Del rocket 3.5 19:36:21 10° WNW 19:39:52 41° SW 19:43:33 10° SE
SAR-Lupe-1 4.1 19:38:01 10° NNE 19:41:37 89° NW 19:45:11 10° SSW
SAR-Lupe-4 3.5 19:40:07 10° NNE 19:43:44 84° ESE 19:47:18 10° SSW
Cosmos 1933 3.3 19:40:03 10° N 19:44:06 75° E 19:48:06 10° SSE
ISS -0.8 19:44:48 10° SW 19:45:01 10° SW 19:45:14 10° SW
Resurs 1-3 3.7 19:41:50 10° SSE 19:46:13 84° WSW 19:50:38 10° NNW
USA 186 4.1 19:45:48 10° SW 19:47:54 19° W 19:49:55 10° NW
ATLAS 3B R/B 4.0 19:41:56 10° NW 19:48:26 39° WSW 19:55:08 10° S
MOS 1 4.4 19:43:21 10° SSE 19:48:59 83° WSW 19:54:41 10° NNW
Cosmos 1782 3.1 19:45:37 10° N 19:49:32 50° ENE 19:53:24 10° SSE
Cosmos 1980 Rocket 4.4 19:49:15 10° NW 19:53:35 23° WSW 19:57:56 10° SSW
GRACE-FO 1 4.5 19:50:32 10° N 19:54:09 78° E 19:57:44 10° S
GRACE-FO 2 4.5 19:50:59 10° N 19:54:36 79° E 19:58:12 10° S
Cosmos 2098 Rocket 4.1 19:51:47 10° SSW 19:55:08 43° WNW 19:59:16 10° N
Ariane Rocket 3.1 19:50:05 10° SSE 19:55:09 80° WSW 20:00:15 10° NNW
Cosmos 1812 3.8 19:51:54 10° NNE 19:55:20 29° ENE 19:58:08 13° SE
SPOT 3 Rocket 3.8 19:50:25 10° SSE 19:55:32 59° ENE 20:00:40 10° N
IRS-1A Rocket 4.4 19:50:45 10° S 19:56:14 75° WSW 20:01:46 10° NNW
Cosmos 1092 Rocket 4.0 19:50:01 10° S 19:56:17 77° E 20:02:37 10° N
Cosmos 2026 Rocket 4.0 19:55:04 10° S 20:01:18 68° E 20:07:29 10° NNE
USA 245 4.2 19:58:56 13° SE 20:02:22 34° ENE 20:05:40 10° N
NOSS 2-1 (C) 2.7 19:59:10 10° SSW 20:02:28 65° SE 20:05:46 10° NE
Cosmos 2333 Rocket 3.2 19:58:54 10° NNW 20:04:01 34° NE 20:08:27 13° ESE
Cosmos 1174 4.0 20:01:58 10° NNW 20:04:47 36° NE 20:06:46 17° ESE
Cosmos 1624 Rocket 4.1 20:00:10 10° NNW 20:05:22 64° ENE 20:09:51 14° SE
GP-B 3.4 20:03:29 10° NNE 20:07:49 50° E 20:11:53 11° SSE
Cosmos 2237 Rocket 4.4 20:05:27 10° N 20:08:10 13° NE 20:10:54 10° ENE
Cosmos 2322 Rocket 2.3 20:03:25 10° NNW 20:09:03 77° WSW 20:14:27 11° SSE
NOSS 2-1 (D) 2.7 20:06:55 10° SW 20:10:14 81° SE 20:13:35 10° NE
Cosmos 1420 Rocket 4.5 20:06:03 10° NNW 20:11:14 49° ENE 20:15:13 16° SE
Terra 3.3 20:11:11 13° ESE 20:14:05 22° ENE 20:17:43 10° NNE
CARTOSAT-1 4.2 20:12:27 17° SE 20:15:23 39° ENE 20:19:25 10° N
Okean 3 Rocket 3.6 20:11:40 10° S 20:16:05 63° E 20:20:35 10° NNE
Cosmos 292 Rocket 4.1 20:14:33 10° NNW 20:19:14 51° ENE 20:22:28 19° SE
Cosmos 1151 Rocket 3.0 20:15:02 10° N 20:19:25 84° E 20:23:16 13° S
IGS 5A 3.9 20:16:51 10° S 20:20:56 60° W 20:25:03 10° NNW
Cosmos 2219 Rocket 3.0 20:17:13 10° NNW 20:22:25 37° NE 20:26:12 17° ESE
ERS-1 Rocket 3.8 20:20:16 18° SE 20:23:30 37° ENE 20:28:06 10° N
SL-27 R/B 2.4 20:22:46 10° SSW 20:26:21 76° ESE 20:29:57 10° NNE
ATLAS 5 CENTAUR R/B 3.1 20:26:20 10° NNW 20:31:25 40° NE 20:36:02 16° ESE
Cosmos 1515 Rocket 3.9 20:27:58 10° N 20:32:16 49° ENE 20:34:39 24° SE
BREEZE-M DEB (TANK) 3.4 20:30:37 10° W 20:33:44 42° SSW 20:38:10 19° SE
BREEZE-M DEB (TANK) 3.1 20:26:01 10° W 20:34:16 65° N 20:36:38 16° E
Cosmos 1452 Rocket 4.2 20:31:41 10° N 20:36:42 42° ENE 20:39:38 22° ESE
BREEZE-M R/B 3.4 20:33:11 10° SSW 20:37:41 30° SSE 20:39:04 23° ESE
CZ-3B R/B 4.2 20:24:03 10° WNW 20:39:34 51° N 20:43:40 10° E
Cosmos 1809 Rocket 4.4 20:33:50 10° S 20:39:59 89° E 20:46:09 10° N
SL-16 R/B 3.6 20:36:36 10° NW 20:41:38 34° WSW 20:46:39 10° SSW
Cosmos 1328 Rocket 3.7 20:38:08 10° NNW 20:42:34 74° W 20:45:46 18° S
SPOT 5 2.9 20:43:33 27° SE 20:45:42 53° ENE 20:50:05 10° N
Cosmos 1766 Rocket 4.1 20:41:49 10° SSW 20:46:08 60° WNW 20:50:27 10° N
Resurs 01 Rocket 3.0 20:42:16 10° SSW 20:46:21 36° W 20:50:28 10° NNW
Cosmos 2056 Rocket 3.9 20:41:40 10° NNW 20:46:55 60° WSW 20:50:42 18° S
Meteor 1-10 Rocket 4.2 20:42:50 10° N 20:48:24 75° ENE 20:51:52 24° SSE
COSMOS 2455 2.9 20:43:02 10° SSW 20:48:53 58° ESE 20:54:48 10° NE
SPOT 1/Viking Rocket 3.9 20:45:36 15° S 20:49:51 63° WSW 20:55:04 10° NNW
Cosmos 2266 Rocket 4.2 20:46:11 21° SSE 20:50:06 51° E 20:56:09 10° NNE
Cosmos 2333 4.1 20:45:49 10° NNW 20:51:28 81° ENE 20:54:40 27° SSE
Cosmos 1553 Rocket 4.0 20:46:26 10° N 20:52:32 79° W 20:57:23 17° S
Cosmos 972 Rocket 4.3 20:50:32 25° SSE 20:53:01 43° ESE 20:57:42 10° NNE
Spot 2 Rocket 3.5 20:51:22 23° SSE 20:54:37 86° WSW 20:59:46 10° NNW
Cosmos 2285 Rocket 4.2 20:55:35 10° NNW 21:01:49 59° ENE 21:05:06 28° SE
COSMOS 2428 2.9 20:57:19 10° NNW 21:02:58 60° ENE 21:05:44 30° SE
Cosmos 2228 Rocket 3.7 20:59:06 10° N 21:03:20 42° ENE 21:04:36 34° ESE
Meteor 2-21 Rocket 4.4 20:59:01 14° S 21:04:27 88° E 21:10:39 10° N
Cosmos 2315 Rocket 4.3 21:00:30 10° N 21:06:42 53° ENE 21:09:43 30° SE
H-2A R/B 4.3 21:06:37 10° NNE 21:10:23 31° E 21:10:27 31° E
ARIANE 5 R/B 2.7 21:08:38 31° S 21:10:44 71° WSW 21:15:10 10° NNW
Cosmos 494 Rocket 4.4 21:11:49 36° SE 21:13:00 41° ESE 21:17:48 10° NE
Cosmos 1805 Rocket 4.0 21:14:59 40° ESE 21:15:41 43° E 21:19:53 10° NNE
Cosmos 2360 Rocket 3.2 21:11:12 10° NW 21:16:24 39° WSW 21:19:49 19° SSW
NOSS 0 Rocket 4.4 21:13:06 10° NNW 21:19:10 51° NE 21:22:05 29° ESE
NOSS 3-1 (C) 4.3 21:12:22 10° NW 21:19:51 67° WSW 21:24:48 28° SSE
Cosmos 468 4.4 21:23:06 34° S 21:25:17 66° ESE 21:30:30 10° NNE
Cosmos 1500 Rocket 3.5 21:23:54 36° SSW 21:25:41 83° W 21:30:10 10° N
S3M 4.3 21:20:08 10° NNW 21:26:29 66° W 21:30:25 24° S
Lacrosse 5 2.2 21:27:57 41° ESE 21:27:57 41° ESE 21:32:19 10° ENE
COSMOS 2487 2.7 21:27:47 45° SW 21:28:36 63° WNW 21:31:58 10° NNE
IRIDIUM 103 4.4 21:23:48 10° N 21:29:00 64° E 21:30:34 43° SSE
Cosmos 1980 4.5 21:26:26 10° NNW 21:31:49 42° NE 21:34:01 29° ESE
USA 229 DEB 3.9 21:30:10 10° NW 21:37:31 79° SW 21:41:06 35° SSE
USA 229 3.9 21:30:16 10° NW 21:37:37 79° SW 21:41:12 36° SSE
APEX 4.4 21:36:10 39° S 21:38:14 59° ESE 21:44:48 10° NE
CZ-4B DEB 4.5 21:39:20 67° NW 21:39:20 67° NW 21:42:09 10° NNW
Cosmos 1048 Rocket 3.8 21:37:14 32° SSW 21:39:38 89° ESE 21:44:48 10° NNE
Sich 1 3.0 21:39:26 58° ESE 21:39:44 60° E 21:44:00 10° NNE
Cosmos 1655 Rocket 4.4 21:35:24 17° SSW 21:40:20 64° WNW 21:46:43 10° N
COBE Rocket 4.4 21:44:35 38° E 21:45:21 41° ENE 21:49:48 10° N
Cosmos 2297 Rocket 3.0 21:46:41 32° ESE 21:46:41 32° ESE 21:51:32 10° NE
IRIDIUM 106 4.2 21:42:01 10° N 21:47:17 89° W 21:48:47 48° S
USA 267 4.2 21:41:46 10° ENE 21:46:01 27° ESE 21:46:01 27° ESE
Cosmos 1743 Rocket 4.3 21:46:03 29° SW 21:48:00 51° WNW 21:52:19 10° N
Cosmos 2333 Rocket 2.9 21:43:05 10° NW 21:48:25 44° WSW 21:50:27 32° SSW
Terra 2.4 21:50:05 37° SSW 21:51:30 50° W 21:56:09 10° NNW
Cosmos 2322 4.5 21:47:01 10° NW 21:52:25 44° WSW 21:54:25 32° SSW
Meteor 1-20 Rocket 4.1 21:51:05 46° S 21:52:49 78° E 21:58:34 10° NNE
Cosmos 2237 Rocket 2.5 21:47:58 10° NNW 21:53:35 56° ENE 21:55:15 41° ESE
Cosmos 1633 Rocket 3.7 21:54:55 40° ENE 21:54:55 40° ENE 21:58:37 10° NNE
NOSS 3-1 (A) 4.3 21:50:36 10° NW 21:58:06 64° WSW 22:01:44 37° S
Cosmos 2227 Rocket 3.1 21:59:49 30° E 21:59:49 30° E 22:04:17 10° NE
ERS-1 Rocket 4.3 22:00:16 23° SW 22:02:20 31° W 22:06:46 10° NNW
CZ-4C R/B 4.1 21:56:19 10° NNW 22:02:30 34° NE 22:09:34 10° E
Cosmos 1666 Rocket 3.6 22:04:18 63° E 22:04:18 63° E 22:08:38 10° NNE
Cosmos 1269 Rocket 4.5 22:04:38 43° E 22:04:38 43° E 22:09:29 10° NE
Spot 4 4.2 22:05:19 47° E 22:05:55 50° ENE 22:10:36 10° N
Cosmos 2219 Rocket 3.1 22:01:13 10° NW 22:06:22 38° WSW 22:07:54 32° SW
Cosmos 1244 Rocket 4.4 22:05:40 49° SSE 22:07:23 74° E 22:13:37 10° NNE
SL-08 ROCKET BODY 4.4 22:10:00 51° SSE 22:11:23 66° E 22:17:30 10° NNE
Cosmos 1515 4.1 22:10:57 10° NNW 22:14:18 57° WNW 22:14:18 57° WNW
ATLAS 5 CENTAUR R/B 2.8 22:10:46 10° NW 22:16:16 50° WSW 22:17:33 44° SSW
USA 234 4.1 22:15:53 10° E 22:22:06 48° NNE 22:28:19 10° NW
SL-16 R/B 3.2 22:19:58 10° NNW 22:25:15 38° NE 22:27:03 30° E
Cosmos 1862 Rocket 3.5 22:24:08 10° N 22:28:13 76° NNE 22:28:13 76° NNE
Cosmos 2084 Rocket 4.3 22:28:09 10° NW 22:31:27 40° W 22:31:27 40° W
NOSS 2-2 (E) 4.4 22:26:43 10° NW 22:32:13 78° SW 22:33:52 54° SSE
Cosmos 1666 3.8 22:33:30 37° NE 22:33:30 37° NE 22:36:07 10° NNE
Cosmos 1340 Rocket 4.2 22:35:07 29° NE 22:35:07 29° NE 22:37:31 10° NNE
COSMOS 2455 4.5 22:29:49 10° WSW 22:35:10 32° NW 22:40:33 10° NNE
Cosmos 1707 Rocket 4.2 22:32:37 10° NNW 22:36:49 46° W 22:36:49 46° W
SL-08 R/B 4.4 22:37:20 57° S 22:38:44 88° W 22:44:55 10° N
Cosmos 1703 Rocket 4.4 22:40:18 10° N 22:44:06 41° ENE 22:44:06 41° ENE
COSMOS 2428 4.2 22:42:25 10° NW 22:46:48 23° WSW 22:47:44 22° WSW
Meteor 2-4 Rocket 3.7 22:45:04 10° NNW 22:51:00 81° W 22:51:48 67° SSW
Okean 1-7 3.6 22:53:26 10° N 22:57:01 50° NE 22:57:01 50° NE
Meteor 2-17 Rocket 4.3 22:59:20 67° SSE 23:00:07 78° E 23:06:11 10° NNE
ALOS 2 2.8 23:02:13 68° NNW 23:02:13 68° NNW 23:06:07 10° NNW
Meteor 1-5 Rocket 4.2 23:01:10 68° SSW 23:01:57 86° W 23:07:55 10° N
Cosmos 1709 Rocket 4.1 23:01:15 55° SE 23:02:09 60° E 23:08:25 10° NNE
Cosmos 2219 3.2 23:01:53 64° SW 23:02:47 82° WNW 23:08:35 10° NNE
Cosmos 2251 Rocket 4.2 23:08:15 41° E 23:08:15 41° E 23:12:44 10° NE
Cosmos 1066 Rocket 4.5 23:02:08 10° N 23:07:58 60° ENE 23:08:44 55° ESE
Lacrosse 5 2.7 23:07:00 18° W 23:10:30 50° NNW 23:15:27 10° NE
Meteor 1-11 Rocket 3.8 23:10:30 57° E 23:10:37 57° E 23:16:02 10° NNE
Cosmos 1745 Rocket 4.0 23:10:06 57° SW 23:11:21 74° W 23:17:42 10° N
Cosmos 44 4.0 23:09:46 10° NNW 23:14:56 51° NE 23:15:49 45° E
Cosmos 2082 3.7 23:15:20 63° ESE 23:15:20 63° ESE 23:21:00 10° NNE
Cosmos 1461 4.1 23:22:31 38° ENE 23:22:31 38° ENE 23:25:26 10° NE
Cosmos 1241 Rocket 4.4 23:20:33 65° S 23:21:23 74° ESE 23:27:53 10° NE
Cosmos 1992 Rocket 3.9 23:16:28 10° NNW 23:21:36 77° W 23:21:36 77° W
Nadezhda 1 Rocket 4.4 23:19:28 10° NNW 23:25:39 52° W 23:26:45 47° WSW
Cosmos 1869 Rocket 4.1 23:29:52 56° NE 23:29:52 56° NE 23:33:35 10° NNE
Meteor 1-23 Rocket 4.5 23:23:38 10° N 23:29:20 60° ENE 23:30:05 55° ESE
Cosmos 2297 Rocket 3.1 23:28:28 32° WSW 23:30:26 44° NW 23:35:52 10° NNE
USA 267 3.1 23:24:15 10° NE 23:30:51 90° WSW 23:33:19 42° SW
Meteor 1-13 Rocket 4.1 23:28:41 10° NNW 23:34:24 74° W 23:34:43 72° SW
Cosmos 2237 Rocket 3.6 23:32:43 10° NW 23:37:04 25° W 23:37:04 25° W
Okean 3 4.0 23:34:53 10° N 23:38:19 57° N 23:38:19 57° N
Cosmos 1933 Rocket 4.5 23:40:25 42° WNW 23:40:25 42° WNW 23:44:23 10° N
Cosmos 2227 Rocket 3.0 23:41:36 36° W 23:43:14 46° NW 23:48:41 10° NNE
Cosmos 1536 3.7 23:45:21 49° NNW 23:45:21 49° NNW 23:48:25 10° N
Cosmos 2344 4.1 23:44:48 37° SE 23:45:38 38° ESE 23:52:31 10° NE
NOSS 3-3 (A) 4.1 23:46:32 52° ESE 23:46:32 52° ESE 23:52:40 10° NE
NOSS 3-3 (C) 4.1 23:46:40 51° ESE 23:46:40 51° ESE 23:52:46 10° NE
Intercosmos 25 Rocket 3.9 23:48:47 74° WNW 23:48:47 74° WNW 23:55:09 10° N
Cosmos 2263 Rocket 2.7 23:49:57 44° ESE 23:49:57 44° ESE 23:55:17 10° NE
Cosmos 1603 4.5 23:48:27 10° NNW 23:53:53 47° ENE 23:55:49 34° ESE
